Weather reports worldwide

Advertisment
F3, Netherlands (6239): temperature & dewpoint: 22.01.2020 08:00:00 - 28.01.2020 08:00:00 (CET)F3, Netherlands (6239): wind speed & gusts: 22.01.2020 08:00:00 - 28.01.2020 08:00:00 (CET)F3, Netherlands (6239): wind direction: 22.01.2020 08:00:00 - 28.01.2020 08:00:00 (CET)F3, Netherlands (6239): reduced air pressure: 22.01.2020 08:00:00 - 28.01.2020 08:00:00 (CET)F3, Netherlands (6239): visibility: 22.01.2020 08:00:00 - 28.01.2020 08:00:00 (CET)
Date & Time tt [°C] td [°C] ff [km/h] ff [kn] fx [km/h] fx [kn] dd ppp [hPa] vv [km]
28.01.2020 08:00:00 4,8 2,0 - - - - - 983,7 10
28.01.2020 07:00:00 4,6 2,1 - - - - - 984,0 10
28.01.2020 06:00:00 4,1 1,7 - - - - - 983,9 10
28.01.2020 05:00:00 4,7 2,6 - - - - - 984,2 10
28.01.2020 04:00:00 4,8 3,3 - - - - - 984,7 10
28.01.2020 03:00:00 4,5 2,8 - - - - - 986,1 10
28.01.2020 02:00:00 4,7 1,8 - - - - - 987,4 8
28.01.2020 01:00:00 4,9 3,4 - - - - - 989,1 4,8
28.01.2020 00:00:00 7,2 4,3 - - - - - 990,5 10
27.01.2020 23:00:00 7,2 5,3 - - - - - 991,9 10
27.01.2020 22:00:00 7,1 4,9 - - - - - 993,1 10
27.01.2020 21:00:00 7,0 4,5 - - - - - 994,2 10
27.01.2020 20:00:00 7,1 4,7 - - - - - 995,2 10
27.01.2020 19:00:00 7,2 4,4 - - - - - 995,9 10
27.01.2020 18:00:00 7,2 4,4 - - - - - 996,4 10
27.01.2020 17:00:00 7,3 4,6 - - - - - 997,1 10
27.01.2020 16:00:00 7,5 4,8 - - - - - 997,4 10
27.01.2020 15:00:00 7,8 5,4 - - - - - 997,9 10
27.01.2020 14:00:00 7,7 5,7 - - - - - 998,2 10
27.01.2020 13:00:00 7,8 5,8 - - - - - 998,7 10
27.01.2020 12:00:00 7,9 5,7 - - - - - 999,4 10
27.01.2020 11:00:00 7,7 5,7 41 22 43 23 - 999,6 10
27.01.2020 10:00:00 7,3 5,0 46 25 47 25 - 999,9 10
27.01.2020 09:00:00 7,5 5,1 42 23 43 23 - 1000,2 10
27.01.2020 08:00:00 7,4 5,6 37 20 40 21 - 1000,4 10
27.01.2020 07:00:00 7,3 5,8 29 16 32 18 - 1000,4 10
27.01.2020 06:00:00 7,4 5,3 35 19 40 21 - 1000,7 10
27.01.2020 05:00:00 7,7 6,0 44 24 50 27 - 1000,5 10
27.01.2020 04:00:00 7,9 6,7 46 25 54 29 - 1000,4 9
27.01.2020 03:00:00 8,0 7,3 54 29 54 29 - 1000,6 3,1
27.01.2020 02:00:00 7,9 6,9 57 31 58 31 - 1001,3 5
27.01.2020 01:00:00 8,0 6,6 57 31 58 31 - 1002,3 -
27.01.2020 00:00:00 8,1 6,8 55 30 58 31 - 1002,9 7
26.01.2020 23:00:00 8,1 6,7 52 28 54 29 - 1003,7 6
26.01.2020 22:00:00 8,1 6,5 54 29 54 29 - 1004,6 6
26.01.2020 21:00:00 8,2 6,1 54 29 54 29 - 1005,3 9
26.01.2020 20:00:00 8,2 6,1 54 29 54 29 - 1006,0 10
26.01.2020 19:00:00 8,1 6,1 52 28 54 29 - 1006,4 9
26.01.2020 18:00:00 8,1 6,3 54 29 58 31 - 1006,8 8
26.01.2020 17:00:00 8,0 6,2 50 27 54 29 - 1007,1 10
26.01.2020 16:00:00 8,0 6,4 48 26 50 27 - 1007,7 8
26.01.2020 15:00:00 8,0 5,9 44 24 47 25 - 1008,2 10
26.01.2020 14:00:00 7,9 5,7 46 25 50 27 - 1008,8 10
26.01.2020 13:00:00 7,8 6,1 52 28 50 27 - 1009,3 6
26.01.2020 12:00:00 7,6 6,0 40 21 50 27 - 1010,0 7
26.01.2020 11:00:00 7,4 5,6 52 28 54 29 - 1010,6 7
26.01.2020 10:00:00 7,0 5,3 50 27 50 27 - 1010,8 6
26.01.2020 09:00:00 6,6 5,4 50 27 50 27 - 1011,2 6
26.01.2020 08:00:00 - - 50 27 50 27 - 1011,4 4,2
26.01.2020 07:00:00 - - 52 28 54 29 - 1011,9 4,4
26.01.2020 06:00:00 - - 50 27 47 25 - 1012,2 6
26.01.2020 05:00:00 - - 48 26 47 25 - 1012,2 10
26.01.2020 04:00:00 - - 41 22 47 25 - 1012,7 9
26.01.2020 03:00:00 - - 44 24 47 25 - 1013,2 10
26.01.2020 02:00:00 - - 41 22 47 25 - 1013,5 10
26.01.2020 01:00:00 - - 44 24 47 25 - 1014,0 10
26.01.2020 00:00:00 - - 46 25 47 25 - 1014,1 10
25.01.2020 23:00:00 - - 44 24 43 23 - 1014,6 10
25.01.2020 22:00:00 - - 46 25 47 25 - 1014,9 10
25.01.2020 21:00:00 - - 46 25 47 25 - 1015,3 10
25.01.2020 20:00:00 - - 44 24 50 27 - 1015,5 10
25.01.2020 19:00:00 - - 46 25 47 25 - 1015,4 10
25.01.2020 18:00:00 - - 46 25 43 23 - 1015,3 10
25.01.2020 17:00:00 - - 42 23 43 23 - 1015,4 10
25.01.2020 16:00:00 - - 39 21 40 21 - 1015,6 10
25.01.2020 15:00:00 - - 41 22 40 21 - 1015,9 10
25.01.2020 14:00:00 - - 39 21 40 21 - 1016,6 10
25.01.2020 13:00:00 - - 39 21 40 21 - 1016,9 10
25.01.2020 12:00:00 - - 29 16 32 18 - 1017,3 10
25.01.2020 11:00:00 - - 31 17 36 19 - 1017,4 10
25.01.2020 10:00:00 - - 35 19 40 21 - 1017,3 10
25.01.2020 09:00:00 - - 31 17 32 18 - 1017,4 10
25.01.2020 08:00:00 - - 34 18 32 18 - 1017,2 10
25.01.2020 07:00:00 - - 31 17 36 19 - 1016,9 10
25.01.2020 06:00:00 - - 35 19 36 19 - 1016,6 10
25.01.2020 05:00:00 - - 29 16 32 18 - 1017,0 10
25.01.2020 04:00:00 - - 31 17 32 18 - 1017,5 10
25.01.2020 03:00:00 - - 35 19 36 19 - 1017,9 10
25.01.2020 02:00:00 - - 35 19 32 18 - 1018,0 10
25.01.2020 01:00:00 - - 37 20 36 19 - 1018,2 10
25.01.2020 00:00:00 - - 34 18 36 19 - 1018,3 8
24.01.2020 23:00:00 - - 37 20 36 19 - 1018,3 10
24.01.2020 22:00:00 - - 35 19 36 19 - 1018,5 10
24.01.2020 21:00:00 - - 35 19 32 18 - 1018,5 10
24.01.2020 20:00:00 - - 34 18 32 18 - 1018,6 10
24.01.2020 19:00:00 - - 34 18 32 18 - 1018,7 10
24.01.2020 18:00:00 - - 34 18 32 18 - 1018,5 10
24.01.2020 17:00:00 - - 35 19 36 19 - 1018,3 10
24.01.2020 16:00:00 - - 35 19 36 19 - 1018,2 10
24.01.2020 15:00:00 - - 34 18 32 18 - 1018,5 10
24.01.2020 14:00:00 - - 34 18 32 18 - 1018,6 10
24.01.2020 13:00:00 - - 26 14 32 18 - 1019,1 10
24.01.2020 12:00:00 - - 28 15 29 16 - 1019,7 10
24.01.2020 11:00:00 - - 29 16 36 19 - 1020,0 10
24.01.2020 10:00:00 - - 29 16 36 19 - 1020,4 5
24.01.2020 09:00:00 - - 34 18 36 19 - 1019,7 4,6
24.01.2020 08:00:00 - - 35 19 36 19 - 1019,5 5
24.01.2020 07:00:00 - - 37 20 36 19 - 1019,8 5
24.01.2020 06:00:00 - - 34 18 36 19 - 1020,3 8
24.01.2020 05:00:00 - - 34 18 32 18 - 1020,4 10
24.01.2020 04:00:00 - - 31 17 32 18 - 1020,8 9
24.01.2020 03:00:00 - - 31 17 32 18 - 1021,7 8
24.01.2020 02:00:00 - - 34 18 32 18 - 1022,5 10
24.01.2020 01:00:00 - - 35 19 36 19 - 1023,1 10
24.01.2020 00:00:00 - - 31 17 32 18 - 1023,6 10
23.01.2020 23:00:00 - - 34 18 32 18 - 1024,2 10
23.01.2020 22:00:00 - - 31 17 36 19 - 1024,7 10
23.01.2020 21:00:00 - - 34 18 32 18 - 1025,1 10
23.01.2020 20:00:00 - - 34 18 36 19 - 1025,4 10
23.01.2020 19:00:00 - - 29 16 36 19 - 1026,0 3,6
23.01.2020 18:00:00 - - 35 19 36 19 - 1026,3 5
23.01.2020 17:00:00 - - 35 19 36 19 - 1026,4 6
23.01.2020 16:00:00 - - 31 17 32 18 - 1027,0 1,0
23.01.2020 15:00:00 - - 31 17 32 18 - 1027,7 1,1
23.01.2020 14:00:00 - - 31 17 32 18 - 1028,6 1,9
23.01.2020 13:00:00 - - 31 17 29 16 - 1029,5 0,3
23.01.2020 12:00:00 - - 29 16 29 16 - 1030,3 3,5
23.01.2020 11:00:00 - - 26 14 29 16 - 1030,6 4,4
23.01.2020 10:00:00 - - 28 15 25 14 - 1031,3 0,3
23.01.2020 09:00:00 - - 22 12 25 14 - 1031,7 1,9
23.01.2020 08:00:00 - - 18 10 22 12 - 1032,1 1,0
23.01.2020 07:00:00 - - 24 13 25 14 - 1032,3 1,0
23.01.2020 06:00:00 - - 26 14 25 14 - 1032,5 1,6
23.01.2020 05:00:00 - - 22 12 22 12 - 1032,7 1,1
23.01.2020 04:00:00 - - 22 12 22 12 - 1033,7 1,9
23.01.2020 03:00:00 - - 21 11 22 12 - 1034,2 2,5
23.01.2020 02:00:00 - - 21 11 22 12 - 1034,5 0,7
23.01.2020 01:00:00 - - 18 10 22 12 - 1035,1 2,6
23.01.2020 00:00:00 - - 16 9 18 10 - 1035,1 9
22.01.2020 23:00:00 - - 8 4 14 8 - 1035,5 0,9
22.01.2020 22:00:00 - - 5 3 14 8 - 1035,9 2,3
22.01.2020 21:00:00 - - 11 6 14 8 - 1035,9 10
22.01.2020 20:00:00 - - 13 7 14 8 - 1035,7 10
22.01.2020 19:00:00 - - 8 4 18 10 - 1035,5 10
22.01.2020 18:00:00 - - 13 7 14 8 - 1035,5 10
22.01.2020 17:00:00 - - 15 8 14 8 - 1035,4 10
22.01.2020 16:00:00 - - 15 8 18 10 - 1035,1 10
22.01.2020 15:00:00 - - 21 11 22 12 - 1035,1 10
22.01.2020 14:00:00 - - 21 11 25 14 - 1035,4 10
22.01.2020 13:00:00 - - 26 14 25 14 - 1035,2 10
22.01.2020 12:00:00 - - 26 14 25 14 - 1035,5 10
22.01.2020 11:00:00 - - 22 12 22 12 - 1035,7 10
22.01.2020 10:00:00 - - 18 10 18 10 - 1035,5 10
22.01.2020 09:00:00 - - 16 9 18 10 - 1035,0 10
22.01.2020 08:00:00 - - 18 10 22 12 - 1034,7 10

tt = temperature
td = dewpoint
ff = wind speed
fx = gusts
dd = wind direction
ppp = reduced air pressure
vv = visibility

Next stations